Tracking 27111 objects as of 28-Mar-2023
HD Live streaming from Space Station
objects crossing your sky now

STARLINK-5422

Track STARLINK-5422 now!
10-day predictions
STARLINK-5422 is classified as:


NORAD ID: 54804
Int'l Code: 2022-175AY
Perigee: 545.6 km
Apogee: 548.1 km
Inclination: 53.2 °
Period: 95.4 minutes
Semi major axis: 6917 km
RCS: Unknown
Launch date: December 17, 2022
Source: United States (US)
Launch site: AIR FORCE EASTERN TEST RANGE (AFETR)
Your satellite tracking list
Your tracking list is empty




NASA's NSSDC Master Catalog

Two Line Element Set (TLE):
1 54804U 22175AY  23086.76143989  .00005960  00000-0  39220-3 0  9993
2 54804  53.2173 187.7923 0001838 120.8811 239.2362 15.08844932 15245
Source of the keplerian elements: AFSPC